Time,TemperatureF,DewpointF,PressureIn,WindDirection,WindDirectionDegrees,WindSpeedMPH,WindSpeedGustMPH,Humidity,HourlyPrecipIn,Conditions,Clouds,dailyrainin,SoftwareType,DateUTC
2013-05-01 00:01:00,57.4,56.0,30.16,SSW,211,0.0,0.0,95,0.00,,FEW015,0.00,VWS V14.01,2013-05-01 04:01:00,
2013-05-01 00:05:00,57.6,56.2,30.16,NNE,15,0.0,2.0,95,0.00,,FEW015,0.00,VWS V14.01,2013-05-01 04:05:00,
2013-05-01 00:10:00,57.7,56.0,30.17,NNE,17,0.0,2.0,94,0.00,,BKN015,0.00,VWS V14.01,2013-05-01 04:10:00,
2013-05-01 00:15:00,57.9,56.2,30.17,ENE,76,0.0,2.0,94,0.00,,BKN015,0.00,VWS V14.01,2013-05-01 04:15:00,
2013-05-01 00:20:00,58.0,56.0,30.17,ENE,75,0.0,1.0,93,0.00,,BKN015,0.00,VWS V14.01,2013-05-01 04:20:00,
2013-05-01 00:25:00,58.1,56.1,30.17,ENE,72,0.0,1.0,93,0.00,,BKN015,0.00,VWS V14.01,2013-05-01 04:25:00,
2013-05-01 00:30:00,58.2,56.2,30.17,ENE,72,0.0,0.0,93,0.00,,BKN015,0.00,VWS V14.01,2013-05-01 04:30:00,
2013-05-01 00:40:00,58.6,56.0,30.17,North,11,0.0,1.0,91,0.00,,BKN015,0.00,VWS V14.01,2013-05-01 04:40:00,
2013-05-01 00:45:00,58.7,56.1,30.17,North,11,0.0,1.0,91,0.00,,BKN015,0.00,VWS V14.01,2013-05-01 04:45:00,
2013-05-01 00:50:00,58.7,56.1,30.17,North,11,0.0,1.0,91,0.00,,BKN015,0.00,VWS V14.01,2013-05-01 04:50:00,
2013-05-01 00:55:00,58.7,56.1,30.17,North,11,0.0,1.0,91,0.00,,BKN015,0.00,VWS V14.01,2013-05-01 04:55:00,
2013-05-01 01:00:00,58.8,56.2,30.17,North,11,0.0,0.0,91,0.00,,SCT020,0.00,VWS V14.01,2013-05-01 05:00:00,
2013-05-01 01:05:00,58.8,56.2,30.17,North,11,0.0,0.0,91,0.00,,SCT020,0.00,VWS V14.01,2013-05-01 05:05:00,
2013-05-01 01:10:00,58.8,56.2,30.17,North,11,0.0,0.0,91,0.00,,SCT020,0.00,VWS V14.01,2013-05-01 05:10:00,
2013-05-01 01:15:00,58.8,56.5,30.17,North,11,0.0,0.0,92,0.00,,SCT020,0.00,VWS V14.01,2013-05-01 05:15:00,
2013-05-01 01:25:00,58.9,56.3,30.17,North,11,0.0,0.0,91,0.00,,BKN016,0.00,VWS V14.01,2013-05-01 05:25:00,
2013-05-01 01:35:00,58.9,56.3,30.17,North,11,0.0,0.0,91,0.00,,BKN016,0.00,VWS V14.01,2013-05-01 05:35:00,
2013-05-01 01:40:00,59.0,56.4,30.17,North,11,0.0,0.0,91,0.00,,BKN016,0.00,VWS V14.01,2013-05-01 05:40:00,
2013-05-01 01:45:00,59.0,56.4,30.17,North,11,0.0,0.0,91,0.00,,BKN016,0.00,VWS V14.01,2013-05-01 05:45:00,
2013-05-01 01:55:00,59.0,56.4,30.17,NNE,25,0.0,2.0,91,0.00,,BKN014,0.00,VWS V14.01,2013-05-01 05:55:00,
2013-05-01 02:00:00,59.0,56.4,30.16,NNE,25,0.0,1.0,91,0.00,,BKN014,0.00,VWS V14.01,2013-05-01 06:00:00,
2013-05-01 02:05:00,59.0,56.4,30.16,NNE,25,0.0,1.0,91,0.00,,BKN014,0.00,VWS V14.01,2013-05-01 06:05:00,
2013-05-01 02:15:00,59.0,56.4,30.16,NNE,25,0.0,0.0,91,0.00,,BKN014,0.00,VWS V14.01,2013-05-01 06:15:00,
2013-05-01 02:20:00,58.9,56.3,30.16,NNE,27,0.0,1.0,91,0.00,,BKN014,0.00,VWS V14.01,2013-05-01 06:20:00,
2013-05-01 02:30:00,58.9,56.3,30.16,NE,38,0.0,2.0,91,0.00,,BKN014,0.00,VWS V14.01,2013-05-01 06:30:00,
2013-05-01 02:35:00,58.8,56.2,30.16,NNE,27,2.0,4.0,91,0.00,,BKN014,0.00,VWS V14.01,2013-05-01 06:35:00,
2013-05-01 02:40:00,58.8,56.2,30.16,NNE,26,0.0,3.0,91,0.00,,BKN014,0.00,VWS V14.01,2013-05-01 06:40:00,
2013-05-01 02:45:00,58.7,56.1,30.16,NNE,26,0.0,1.0,91,0.00,,BKN014,0.00,VWS V14.01,2013-05-01 06:45:00,
2013-05-01 02:50:00,58.7,56.4,30.15,North,3,0.0,2.0,92,0.00,,BKN014,0.00,VWS V14.01,2013-05-01 06:50:00,
2013-05-01 02:55:00,58.7,56.4,30.15,NNE,16,2.0,4.0,92,0.00,,OVC010,0.00,VWS V14.01,2013-05-01 06:55:00,
2013-05-01 03:00:00,58.7,56.4,30.15,NNE,16,0.0,2.0,92,0.00,,OVC010,0.00,VWS V14.01,2013-05-01 07:00:00,
2013-05-01 03:10:00,58.6,56.3,30.15,NNE,16,0.0,0.0,92,0.00,,OVC010,0.00,VWS V14.01,2013-05-01 07:10:00,
2013-05-01 03:15:00,58.6,56.3,30.15,North,11,0.0,3.0,92,0.00,,OVC010,0.00,VWS V14.01,2013-05-01 07:15:00,
2013-05-01 03:20:00,58.6,56.3,30.15,North,11,0.0,0.0,92,0.00,,OVC010,0.00,VWS V14.01,2013-05-01 07:20:00,
2013-05-01 03:30:00,58.6,56.3,30.16,NNE,32,0.0,2.0,92,0.00,,OVC010,0.00,VWS V14.01,2013-05-01 07:30:00,
2013-05-01 03:35:00,58.6,56.3,30.16,NNE,32,0.0,1.0,92,0.00,,OVC010,0.00,VWS V14.01,2013-05-01 07:35:00,
2013-05-01 03:40:00,58.7,56.4,30.16,NNE,32,0.0,1.0,92,0.00,,OVC010,0.00,VWS V14.01,2013-05-01 07:40:00,
2013-05-01 03:50:00,58.6,56.3,30.16,NNE,29,0.0,1.0,92,0.00,,OVC010,0.00,VWS V14.01,2013-05-01 07:50:00,
2013-05-01 04:00:00,58.7,56.4,30.16,NNE,20,0.0,2.0,92,0.00,,OVC033,0.00,VWS V14.01,2013-05-01 08:00:00,
2013-05-01 04:05:00,58.7,56.4,30.16,NNW,346,0.0,2.0,92,0.00,,OVC033,0.00,VWS V14.01,2013-05-01 08:05:00,
2013-05-01 04:10:00,58.7,56.4,30.16,North,7,0.0,2.0,92,0.00,,OVC033,0.00,VWS V14.01,2013-05-01 08:10:00,
2013-05-01 04:15:00,58.7,56.4,30.16,North,6,0.0,1.0,92,0.00,,OVC033,0.00,VWS V14.01,2013-05-01 08:15:00,
2013-05-01 04:20:00,58.7,56.4,30.16,NW,315,0.0,1.0,92,0.00,,OVC033,0.00,VWS V14.01,2013-05-01 08:20:00,
2013-05-01 04:25:00,58.7,56.4,30.16,NNW,335,0.0,0.0,92,0.00,,OVC033,0.00,VWS V14.01,2013-05-01 08:25:00,
2013-05-01 04:30:00,58.7,56.4,30.16,North,11,0.0,0.0,92,0.00,,OVC033,0.00,VWS V14.01,2013-05-01 08:30:00,
2013-05-01 04:35:00,58.7,56.4,30.16,NNW,342,0.0,0.0,92,0.00,,OVC033,0.00,VWS V14.01,2013-05-01 08:35:00,
2013-05-01 04:45:00,58.7,56.4,30.16,North,7,0.0,2.0,92,0.00,,OVC033,0.00,VWS V14.01,2013-05-01 08:45:00,
2013-05-01 04:50:00,58.7,56.4,30.16,NNE,19,1.0,1.0,92,0.00,,OVC033,0.00,VWS V14.01,2013-05-01 08:50:00,
2013-05-01 05:00:00,58.6,56.3,30.15,North,6,0.0,0.0,92,0.00,,OVC009,0.00,VWS V14.01,2013-05-01 09:00:00,
2013-05-01 05:05:00,58.6,56.6,30.15,North,6,0.0,1.0,93,0.00,,OVC009,0.00,VWS V14.01,2013-05-01 09:05:00,
2013-05-01 05:10:00,58.5,56.5,30.15,NNE,20,0.0,2.0,93,0.00,,OVC009,0.00,VWS V14.01,2013-05-01 09:10:00,
2013-05-01 05:15:00,58.5,56.5,30.15,ENE,63,0.0,4.0,93,0.00,,OVC009,0.00,VWS V14.01,2013-05-01 09:15:00,
2013-05-01 05:20:00,58.5,56.5,30.16,NNE,18,0.0,4.0,93,0.00,,OVC009,0.00,VWS V14.01,2013-05-01 09:20:00,
2013-05-01 05:25:00,58.4,56.4,30.16,North,11,0.0,1.0,93,0.00,,OVC009,0.00,VWS V14.01,2013-05-01 09:25:00,
2013-05-01 05:30:00,58.4,56.4,30.16,NNE,12,1.0,2.0,93,0.00,,OVC009,0.00,VWS V14.01,2013-05-01 09:30:00,
2013-05-01 05:35:00,58.4,56.4,30.16,North,10,0.0,3.0,93,0.00,,OVC009,0.00,VWS V14.01,2013-05-01 09:35:00,
2013-05-01 05:45:00,58.5,56.5,30.16,NNE,16,2.0,2.0,93,0.00,,OVC009,0.00,VWS V14.01,2013-05-01 09:45:00,
2013-05-01 05:50:00,58.5,56.5,30.17,NNE,16,0.0,2.0,93,0.00,,OVC009,0.00,VWS V14.01,2013-05-01 09:50:00,
2013-05-01 05:55:00,58.5,56.5,30.17,North,11,2.0,3.0,93,0.00,,OVC009,0.00,VWS V14.01,2013-05-01 09:55:00,
2013-05-01 06:00:00,58.5,56.5,30.17,NNE,14,0.0,2.0,93,0.00,,OVC009,0.00,VWS V14.01,2013-05-01 10:00:00,
2013-05-01 06:10:00,58.6,56.6,30.17,NNE,15,0.0,2.0,93,0.00,,OVC009,0.00,VWS V14.01,2013-05-01 10:10:00,
2013-05-01 06:15:00,58.6,56.6,30.17,NNE,32,0.0,2.0,93,0.00,,OVC009,0.00,VWS V14.01,2013-05-01 10:15:00,
2013-05-01 06:20:00,58.6,56.6,30.18,North,6,2.0,2.0,93,0.00,,OVC009,0.00,VWS V14.01,2013-05-01 10:20:00,
2013-05-01 06:25:00,58.6,56.6,30.18,NNE,17,0.0,2.0,93,0.00,,OVC009,0.00,VWS V14.01,2013-05-01 10:25:00,
2013-05-01 06:30:00,58.6,56.6,30.18,NNE,19,0.0,2.0,93,0.00,,OVC009,0.00,VWS V14.01,2013-05-01 10:30:00,
2013-05-01 06:35:00,58.6,56.6,30.18,North,10,1.0,2.0,93,0.00,,OVC009,0.00,VWS V14.01,2013-05-01 10:35:00,
2013-05-01 06:40:00,58.6,56.6,30.19,North,9,0.0,1.0,93,0.00,,OVC009,0.00,VWS V14.01,2013-05-01 10:40:00,
2013-05-01 06:45:00,58.6,56.6,30.19,NNE,17,1.0,2.0,93,0.00,,OVC009,0.00,VWS V14.01,2013-05-01 10:45:00,
2013-05-01 06:50:00,58.5,56.8,30.19,ENE,71,0.0,3.0,94,0.00,,OVC009,0.00,VWS V14.01,2013-05-01 10:50:00,
2013-05-01 06:55:00,58.5,56.8,30.19,NNE,33,0.0,3.0,94,0.00,,OVC009,0.00,VWS V14.01,2013-05-01 10:55:00,
2013-05-01 07:00:00,58.5,56.8,30.20,NNE,17,0.0,3.0,94,0.00,,OVC009,0.00,VWS V14.01,2013-05-01 11:00:00,
2013-05-01 07:05:00,58.6,56.9,30.20,NNE,17,0.0,1.0,94,0.00,,OVC009,0.00,VWS V14.01,2013-05-01 11:05:00,
2013-05-01 07:10:00,58.5,56.8,30.20,NNE,17,0.0,1.0,94,0.00,,OVC009,0.00,VWS V14.01,2013-05-01 11:10:00,
2013-05-01 07:15:00,58.5,57.1,30.20,North,4,0.0,1.0,95,0.00,,OVC009,0.00,VWS V14.01,2013-05-01 11:15:00,
2013-05-01 07:20:00,58.4,57.0,30.20,NE,39,0.0,1.0,95,0.00,,OVC009,0.00,VWS V14.01,2013-05-01 11:20:00,
2013-05-01 07:25:00,58.3,56.9,30.20,NE,40,1.0,1.0,95,0.00,,OVC009,0.00,VWS V14.01,2013-05-01 11:25:00,
2013-05-01 07:30:00,58.3,56.9,30.21,NNE,32,0.0,2.0,95,0.00,,OVC009,0.00,VWS V14.01,2013-05-01 11:30:00,
2013-05-01 07:35:00,58.3,56.9,30.21,NNE,12,0.0,2.0,95,0.00,,OVC009,0.00,VWS V14.01,2013-05-01 11:35:00,
2013-05-01 07:40:00,58.2,56.8,30.21,NNE,17,1.0,1.0,95,0.00,,OVC009,0.00,VWS V14.01,2013-05-01 11:40:00,
2013-05-01 07:45:00,58.2,56.8,30.21,NNE,28,0.0,3.0,95,0.00,,OVC009,0.00,VWS V14.01,2013-05-01 11:45:00,
2013-05-01 07:50:00,58.2,56.8,30.21,NNE,28,0.0,1.0,95,0.00,,OVC009,0.00,VWS V14.01,2013-05-01 11:50:00,
2013-05-01 07:55:00,58.2,56.8,30.21,NNE,28,0.0,1.0,95,0.00,,OVC009,0.00,VWS V14.01,2013-05-01 11:55:00,
2013-05-01 08:00:00,58.2,57.1,30.21,NE,34,0.0,3.0,96,0.00,,,0.00,VWS V14.01,2013-05-01 12:00:00,
2013-05-01 08:05:00,58.2,57.1,30.21,NNE,27,0.0,1.0,96,0.00,,,0.00,VWS V14.01,2013-05-01 12:05:00,
2013-05-01 08:10:00,58.2,56.8,30.21,NNE,27,0.0,1.0,95,0.00,,,0.00,VWS V14.01,2013-05-01 12:10:00,
2013-05-01 08:15:00,58.2,56.8,30.21,NNE,13,1.0,2.0,95,0.00,,,0.00,VWS V14.01,2013-05-01 12:15:00,
2013-05-01 08:20:00,58.2,56.8,30.22,NNE,13,0.0,2.0,95,0.00,,,0.00,VWS V14.01,2013-05-01 12:20:00,
2013-05-01 08:25:00,58.2,56.8,30.22,NNE,12,0.0,2.0,95,0.00,,,0.00,VWS V14.01,2013-05-01 12:25:00,
2013-05-01 08:30:00,58.2,56.8,30.22,NNE,13,0.0,1.0,95,0.00,,,0.00,VWS V14.01,2013-05-01 12:30:00,
2013-05-01 08:35:00,58.2,56.8,30.22,North,6,0.0,3.0,95,0.00,,,0.00,VWS V14.01,2013-05-01 12:35:00,
2013-05-01 08:40:00,58.2,56.8,30.22,NNE,31,1.0,6.0,95,0.00,,,0.00,VWS V14.01,2013-05-01 12:40:00,
2013-05-01 08:45:00,58.1,56.7,30.22,NNE,20,0.0,3.0,95,0.00,,,0.00,VWS V14.01,2013-05-01 12:45:00,
2013-05-01 08:50:00,58.0,56.6,30.23,NNE,15,0.0,3.0,95,0.00,,,0.00,VWS V14.01,2013-05-01 12:50:00,
2013-05-01 08:55:00,58.1,56.7,30.23,NNE,13,0.0,2.0,95,0.00,,,0.00,VWS V14.01,2013-05-01 12:55:00,
2013-05-01 09:00:00,58.1,56.7,30.23,NNE,12,1.0,3.0,95,0.00,,,0.00,VWS V14.01,2013-05-01 13:00:00,
2013-05-01 09:05:00,58.0,56.6,30.23,North,3,0.0,4.0,95,0.00,,,0.00,VWS V14.01,2013-05-01 13:05:00,
2013-05-01 09:10:00,57.9,56.5,30.23,NNE,24,0.0,2.0,95,0.00,,,0.00,VWS V14.01,2013-05-01 13:10:00,
2013-05-01 09:15:00,58.0,56.6,30.23,North,11,0.0,1.0,95,0.00,,,0.00,VWS V14.01,2013-05-01 13:15:00,
2013-05-01 09:20:00,57.9,56.5,30.23,North,8,0.0,2.0,95,0.00,,,0.00,VWS V14.01,2013-05-01 13:20:00,
2013-05-01 09:25:00,57.9,56.5,30.23,North,6,0.0,2.0,95,0.00,,,0.00,VWS V14.01,2013-05-01 13:25:00,
2013-05-01 09:30:00,58.0,56.6,30.23,ESE,113,0.0,3.0,95,0.00,,,0.00,VWS V14.01,2013-05-01 13:30:00,
2013-05-01 09:35:00,58.0,56.6,30.24,East,86,0.0,2.0,95,0.00,,,0.00,VWS V14.01,2013-05-01 13:35:00,
2013-05-01 09:40:00,58.0,56.3,30.24,NNE,21,1.0,4.0,94,0.00,,,0.00,VWS V14.01,2013-05-01 13:40:00,
2013-05-01 09:45:00,58.0,56.3,30.24,NNE,18,0.0,3.0,94,0.00,,,0.00,VWS V14.01,2013-05-01 13:45:00,
2013-05-01 09:50:00,58.1,56.4,30.24,NNE,20,0.0,2.0,94,0.00,,,0.00,VWS V14.01,2013-05-01 13:50:00,
2013-05-01 09:55:00,58.1,56.1,30.24,NNE,25,0.0,5.0,93,0.00,,,0.00,VWS V14.01,2013-05-01 13:55:00,
2013-05-01 10:00:00,58.2,56.2,30.25,NNE,29,0.0,3.0,93,0.00,,,0.00,VWS V14.01,2013-05-01 14:00:00,
2013-05-01 10:05:00,58.3,56.6,30.25,ENE,78,0.0,1.0,94,0.00,,,0.00,VWS V14.01,2013-05-01 14:05:00,
2013-05-01 10:10:00,58.4,56.4,30.25,NNE,32,2.0,5.0,93,0.00,,,0.00,VWS V14.01,2013-05-01 14:10:00,
2013-05-01 10:15:00,58.5,56.5,30.25,NNE,18,0.0,2.0,93,0.00,,,0.00,VWS V14.01,2013-05-01 14:15:00,
2013-05-01 10:20:00,58.6,56.6,30.25,NNE,20,1.0,2.0,93,0.00,,,0.00,VWS V14.01,2013-05-01 14:20:00,
2013-05-01 10:25:00,58.6,56.6,30.25,NE,44,0.0,2.0,93,0.00,,,0.00,VWS V14.01,2013-05-01 14:25:00,
2013-05-01 10:30:00,58.5,56.5,30.25,NNE,13,1.0,4.0,93,0.00,,,0.00,VWS V14.01,2013-05-01 14:30:00,
2013-05-01 10:35:00,58.6,56.6,30.25,NNE,18,1.0,2.0,93,0.00,,,0.00,VWS V14.01,2013-05-01 14:35:00,
2013-05-01 10:40:00,58.6,56.6,30.25,NNE,21,0.0,3.0,93,0.00,,,0.00,VWS V14.01,2013-05-01 14:40:00,
2013-05-01 10:45:00,58.8,56.8,30.26,NNE,21,0.0,1.0,93,0.00,,,0.00,VWS V14.01,2013-05-01 14:45:00,
2013-05-01 10:50:00,59.1,57.4,30.25,NNE,21,0.0,0.0,94,0.00,,,0.00,VWS V14.01,2013-05-01 14:50:00,
2013-05-01 10:55:00,59.2,57.2,30.25,East,97,0.0,1.0,93,0.00,,,0.00,VWS V14.01,2013-05-01 14:55:00,
2013-05-01 11:00:00,59.2,56.9,30.26,NNE,17,0.0,5.0,92,0.00,,,0.00,VWS V14.01,2013-05-01 15:00:00,
2013-05-01 11:05:00,59.3,57.0,30.25,North,8,0.0,4.0,92,0.00,,,0.00,VWS V14.01,2013-05-01 15:05:00,
2013-05-01 11:15:00,59.4,56.8,30.26,NNE,16,0.0,3.0,91,0.00,,,0.00,VWS V14.01,2013-05-01 15:15:00,
2013-05-01 11:20:00,59.4,56.8,30.26,North,11,0.0,2.0,91,0.00,,,0.00,VWS V14.01,2013-05-01 15:20:00,
2013-05-01 11:25:00,59.5,56.9,30.26,ENE,70,1.0,6.0,91,0.00,,,0.00,VWS V14.01,2013-05-01 15:25:00,
2013-05-01 11:30:00,59.5,56.9,30.26,North,7,0.0,4.0,91,0.00,,,0.00,VWS V14.01,2013-05-01 15:30:00,
2013-05-01 11:35:00,59.5,56.6,30.26,NNE,16,2.0,5.0,90,0.00,,,0.00,VWS V14.01,2013-05-01 15:35:00,
2013-05-01 11:40:00,59.7,57.1,30.26,NNE,16,0.0,2.0,91,0.00,,,0.00,VWS V14.01,2013-05-01 15:40:00,
2013-05-01 11:45:00,59.7,56.8,30.25,ENE,63,1.0,5.0,90,0.00,,OVC020,0.00,VWS V14.01,2013-05-01 15:45:00,
2013-05-01 11:50:00,59.8,56.9,30.25,East,81,0.0,4.0,90,0.00,,OVC020,0.00,VWS V14.01,2013-05-01 15:50:00,
2013-05-01 11:55:00,60.0,56.8,30.25,NNE,15,1.0,3.0,89,0.00,,OVC020,0.00,VWS V14.01,2013-05-01 15:55:00,
2013-05-01 12:05:00,60.2,57.0,30.25,NNE,19,1.0,4.0,89,0.00,,OVC025,0.00,VWS V14.01,2013-05-01 16:05:00,
2013-05-01 12:10:00,60.2,57.0,30.25,NNE,18,1.0,3.0,89,0.00,,OVC025,0.00,VWS V14.01,2013-05-01 16:10:00,
2013-05-01 12:15:00,60.2,57.0,30.26,North,1,0.0,4.0,89,0.00,,OVC025,0.00,VWS V14.01,2013-05-01 16:15:00,
2013-05-01 12:20:00,60.3,57.0,30.26,NNE,16,2.0,2.0,89,0.00,,OVC025,0.00,VWS V14.01,2013-05-01 16:20:00,
2013-05-01 12:25:00,60.2,57.0,30.26,NNE,21,1.0,3.0,89,0.00,,OVC025,0.00,VWS V14.01,2013-05-01 16:25:00,
2013-05-01 12:30:00,60.3,57.0,30.26,NNE,13,0.0,2.0,89,0.00,,OVC025,0.00,VWS V14.01,2013-05-01 16:30:00,
2013-05-01 12:35:00,60.3,57.0,30.25,NE,51,0.0,3.0,89,0.00,,OVC025,0.00,VWS V14.01,2013-05-01 16:35:00,
2013-05-01 12:40:00,60.4,57.5,30.25,NNE,31,0.0,3.0,90,0.00,,OVC025,0.00,VWS V14.01,2013-05-01 16:40:00,
2013-05-01 12:45:00,60.3,57.4,30.26,ENE,70,0.0,4.0,90,0.00,,OVC025,0.00,VWS V14.01,2013-05-01 16:45:00,
2013-05-01 12:50:00,60.3,57.4,30.26,NNE,15,1.0,2.0,90,0.00,,OVC025,0.00,VWS V14.01,2013-05-01 16:50:00,
2013-05-01 12:55:00,60.2,57.0,30.26,NNE,24,0.0,4.0,89,0.00,,OVC025,0.00,VWS V14.01,2013-05-01 16:55:00,
2013-05-01 13:00:00,60.3,57.4,30.26,NNE,21,0.0,2.0,90,0.00,,OVC011,0.00,VWS V14.01,2013-05-01 17:00:00,
2013-05-01 13:05:00,60.3,57.4,30.26,NE,40,0.0,1.0,90,0.00,,OVC011,0.00,VWS V14.01,2013-05-01 17:05:00,
2013-05-01 13:10:00,60.4,57.5,30.26,North,10,3.0,3.0,90,0.00,,OVC011,0.00,VWS V14.01,2013-05-01 17:10:00,
2013-05-01 13:15:00,60.4,57.5,30.26,NNE,23,0.0,3.0,90,0.00,,OVC011,0.00,VWS V14.01,2013-05-01 17:15:00,
2013-05-01 13:20:00,60.5,57.6,30.26,NNE,23,0.0,1.0,90,0.00,,OVC011,0.00,VWS V14.01,2013-05-01 17:20:00,
2013-05-01 13:25:00,60.6,58.0,30.26,NNE,23,0.0,1.0,91,0.00,,OVC011,0.00,VWS V14.01,2013-05-01 17:25:00,
2013-05-01 13:30:00,60.6,57.7,30.26,NNE,21,1.0,2.0,90,0.00,,OVC011,0.00,VWS V14.01,2013-05-01 17:30:00,
2013-05-01 13:35:00,60.7,57.8,30.26,NNE,14,0.0,2.0,90,0.00,,OVC011,0.00,VWS V14.01,2013-05-01 17:35:00,
2013-05-01 13:40:00,60.8,57.8,30.26,NNE,13,1.0,1.0,90,0.00,,OVC011,0.00,VWS V14.01,2013-05-01 17:40:00,
2013-05-01 13:45:00,60.8,57.5,30.26,NNE,15,1.0,4.0,89,0.00,,OVC011,0.00,VWS V14.01,2013-05-01 17:45:00,
2013-05-01 13:50:00,60.7,57.8,30.27,SE,131,0.0,2.0,90,0.00,,OVC011,0.00,VWS V14.01,2013-05-01 17:50:00,
2013-05-01 13:55:00,60.8,57.8,30.27,ENE,75,0.0,1.0,90,0.00,,OVC011,0.00,VWS V14.01,2013-05-01 17:55:00,
2013-05-01 14:00:00,60.7,58.1,30.27,East,83,0.0,2.0,91,0.00,,OVC011,0.00,VWS V14.01,2013-05-01 18:00:00,
2013-05-01 14:05:00,60.7,58.4,30.27,NE,49,1.0,1.0,92,0.00,,OVC011,0.00,VWS V14.01,2013-05-01 18:05:00,
2013-05-01 14:10:00,60.6,58.3,30.26,NE,37,0.0,1.0,92,0.00,,OVC011,0.00,VWS V14.01,2013-05-01 18:10:00,
2013-05-01 14:15:00,60.7,58.4,30.27,NW,306,0.0,2.0,92,0.00,,OVC011,0.00,VWS V14.01,2013-05-01 18:15:00,
2013-05-01 14:20:00,60.7,58.4,30.26,NW,315,0.0,4.0,92,0.00,,OVC011,0.00,VWS V14.01,2013-05-01 18:20:00,
2013-05-01 14:25:00,60.7,58.4,30.26,NE,37,4.0,4.0,92,0.00,,OVC011,0.00,VWS V14.01,2013-05-01 18:25:00,
2013-05-01 14:30:00,60.7,58.4,30.26,ENE,73,0.0,4.0,92,0.00,,OVC011,0.00,VWS V14.01,2013-05-01 18:30:00,
2013-05-01 14:35:00,60.8,58.5,30.26,North,6,0.0,5.0,92,0.00,,OVC011,0.00,VWS V14.01,2013-05-01 18:35:00,
2013-05-01 14:40:00,60.9,58.6,30.25,North,10,0.0,2.0,92,0.00,,OVC011,0.00,VWS V14.01,2013-05-01 18:40:00,
2013-05-01 14:45:00,61.0,58.7,30.25,NE,35,0.0,2.0,92,0.00,,OVC011,0.00,VWS V14.01,2013-05-01 18:45:00,
2013-05-01 14:50:00,61.2,58.9,30.25,North,360,1.0,3.0,92,0.00,,,0.00,VWS V14.01,2013-05-01 18:50:00,
2013-05-01 14:55:00,61.2,58.9,30.25,North,1,1.0,4.0,92,0.00,,,0.00,VWS V14.01,2013-05-01 18:55:00,
2013-05-01 15:00:00,61.2,58.6,30.25,NNE,28,2.0,2.0,91,0.00,,,0.00,VWS V14.01,2013-05-01 19:00:00,
2013-05-01 15:05:00,61.1,58.2,30.25,North,5,0.0,6.0,90,0.00,,,0.00,VWS V14.01,2013-05-01 19:05:00,
2013-05-01 15:10:00,61.2,58.2,30.25,ENE,70,0.0,2.0,90,0.00,,,0.00,VWS V14.01,2013-05-01 19:10:00,
2013-05-01 15:15:00,61.7,58.1,30.24,NNW,338,0.0,3.0,88,0.00,,,0.00,VWS V14.01,2013-05-01 19:15:00,
2013-05-01 15:20:00,61.9,58.0,30.25,NNE,16,1.0,6.0,87,0.00,,,0.00,VWS V14.01,2013-05-01 19:20:00,
2013-05-01 15:25:00,62.1,58.5,30.25,NE,41,0.0,5.0,88,0.00,,,0.00,VWS V14.01,2013-05-01 19:25:00,
2013-05-01 15:30:00,62.0,58.4,30.25,NNE,29,2.0,7.0,88,0.00,,,0.00,VWS V14.01,2013-05-01 19:30:00,
2013-05-01 15:35:00,61.6,58.0,30.24,North,6,2.0,3.0,88,0.00,,,0.00,VWS V14.01,2013-05-01 19:35:00,
2013-05-01 15:40:00,61.5,57.6,30.24,ENE,58,1.0,4.0,87,0.00,,,0.00,VWS V14.01,2013-05-01 19:40:00,
2013-05-01 15:45:00,61.6,57.7,30.24,NNE,29,0.0,5.0,87,0.00,,,0.00,VWS V14.01,2013-05-01 19:45:00,
2013-05-01 15:50:00,61.6,58.0,30.25,NNE,15,1.0,4.0,88,0.00,,,0.00,VWS V14.01,2013-05-01 19:50:00,
2013-05-01 15:55:00,61.1,57.5,30.24,NNE,23,0.0,3.0,88,0.00,,,0.00,VWS V14.01,2013-05-01 19:55:00,
2013-05-01 16:00:00,60.9,57.6,30.25,NNE,24,1.0,2.0,89,0.00,,,0.00,VWS V14.01,2013-05-01 20:00:00,
2013-05-01 16:05:00,60.6,57.3,30.25,NNE,17,3.0,4.0,89,0.00,,,0.00,VWS V14.01,2013-05-01 20:05:00,
2013-05-01 16:10:00,60.6,57.7,30.25,ENE,70,0.0,3.0,90,0.00,,,0.00,VWS V14.01,2013-05-01 20:10:00,
2013-05-01 16:15:00,60.5,57.2,30.25,NNE,14,1.0,2.0,89,0.00,,,0.00,VWS V14.01,2013-05-01 20:15:00,
2013-05-01 16:20:00,60.5,57.2,30.25,NNE,13,1.0,5.0,89,0.00,,,0.00,VWS V14.01,2013-05-01 20:20:00,
2013-05-01 16:25:00,60.4,57.5,30.26,NNE,24,1.0,2.0,90,0.00,,,0.00,VWS V14.01,2013-05-01 20:25:00,
2013-05-01 16:30:00,60.3,57.4,30.26,NNE,20,3.0,3.0,90,0.00,,,0.00,VWS V14.01,2013-05-01 20:30:00,
2013-05-01 16:35:00,60.1,57.5,30.26,ENE,74,0.0,3.0,91,0.00,,,0.00,VWS V14.01,2013-05-01 20:35:00,
2013-05-01 16:40:00,59.9,57.0,30.26,NNE,23,0.0,4.0,90,0.00,,,0.00,VWS V14.01,2013-05-01 20:40:00,
2013-05-01 16:45:00,59.7,57.1,30.26,NNE,12,0.0,2.0,91,0.00,,,0.00,VWS V14.01,2013-05-01 20:45:00,
2013-05-01 16:50:00,59.5,56.9,30.26,NE,49,1.0,3.0,91,0.00,,,0.00,VWS V14.01,2013-05-01 20:50:00,
2013-05-01 16:55:00,59.4,57.1,30.26,NNE,30,0.0,2.0,92,0.00,,,0.00,VWS V14.01,2013-05-01 20:55:00,
2013-05-01 17:00:00,59.4,57.1,30.26,NNE,24,1.0,1.0,92,0.00,,,0.00,VWS V14.01,2013-05-01 21:00:00,
2013-05-01 17:05:00,59.4,56.8,30.26,NNE,23,0.0,4.0,91,0.00,,,0.00,VWS V14.01,2013-05-01 21:05:00,
2013-05-01 17:10:00,59.4,56.8,30.26,ENE,72,0.0,1.0,91,0.00,,,0.00,VWS V14.01,2013-05-01 21:10:00,
2013-05-01 17:15:00,59.5,57.2,30.26,NNE,15,0.0,3.0,92,0.00,,,0.00,VWS V14.01,2013-05-01 21:15:00,
2013-05-01 17:20:00,59.6,57.0,30.26,NNE,24,0.0,4.0,91,0.00,,,0.00,VWS V14.01,2013-05-01 21:20:00,
2013-05-01 17:25:00,59.6,57.0,30.26,ENE,65,0.0,1.0,91,0.00,,,0.00,VWS V14.01,2013-05-01 21:25:00,
2013-05-01 17:30:00,59.7,57.1,30.27,North,11,0.0,2.0,91,0.00,,,0.00,VWS V14.01,2013-05-01 21:30:00,
2013-05-01 17:35:00,59.7,57.1,30.27,North,11,0.0,1.0,91,0.00,,,0.00,VWS V14.01,2013-05-01 21:35:00,
2013-05-01 17:40:00,59.7,57.1,30.27,North,7,0.0,2.0,91,0.00,,,0.00,VWS V14.01,2013-05-01 21:40:00,
2013-05-01 17:45:00,59.5,56.9,30.27,NNE,22,0.0,2.0,91,0.00,,,0.00,VWS V14.01,2013-05-01 21:45:00,
2013-05-01 17:50:00,59.6,57.3,30.27,NNE,22,0.0,1.0,92,0.00,,OVC008,0.00,VWS V14.01,2013-05-01 21:50:00,
2013-05-01 17:55:00,59.5,56.9,30.27,NNE,18,1.0,3.0,91,0.00,,OVC008,0.00,VWS V14.01,2013-05-01 21:55:00,
2013-05-01 18:00:00,59.4,56.8,30.27,NNE,27,0.0,2.0,91,0.00,,OVC008,0.00,VWS V14.01,2013-05-01 22:00:00,
2013-05-01 18:05:00,59.4,57.1,30.26,NNE,13,0.0,2.0,92,0.00,,OVC008,0.00,VWS V14.01,2013-05-01 22:05:00,
2013-05-01 18:10:00,59.4,57.1,30.26,NNE,22,1.0,3.0,92,0.00,,OVC008,0.00,VWS V14.01,2013-05-01 22:10:00,
2013-05-01 18:15:00,59.4,57.1,30.26,NNE,22,1.0,1.0,92,0.00,,OVC008,0.00,VWS V14.01,2013-05-01 22:15:00,
2013-05-01 18:20:00,59.4,57.1,30.26,North,11,0.0,1.0,92,0.00,,OVC008,0.00,VWS V14.01,2013-05-01 22:20:00,
2013-05-01 18:25:00,59.4,57.1,30.26,NE,34,1.0,2.0,92,0.00,,OVC008,0.00,VWS V14.01,2013-05-01 22:25:00,
2013-05-01 18:30:00,59.4,57.1,30.26,NNE,25,1.0,3.0,92,0.00,,OVC008,0.00,VWS V14.01,2013-05-01 22:30:00,
2013-05-01 18:35:00,59.4,57.1,30.26,NE,34,0.0,2.0,92,0.00,,OVC008,0.00,VWS V14.01,2013-05-01 22:35:00,
2013-05-01 18:40:00,59.4,56.8,30.26,WNW,303,1.0,2.0,91,0.00,,OVC008,0.00,VWS V14.01,2013-05-01 22:40:00,
2013-05-01 18:45:00,59.4,57.1,30.26,NNE,31,2.0,2.0,92,0.00,,OVC008,0.00,VWS V14.01,2013-05-01 22:45:00,
2013-05-01 18:50:00,59.5,56.9,30.26,NNE,14,0.0,2.0,91,0.00,,OVC008,0.00,VWS V14.01,2013-05-01 22:50:00,
2013-05-01 18:55:00,59.5,57.2,30.26,NNE,15,0.0,3.0,92,0.00,,OVC008,0.00,VWS V14.01,2013-05-01 22:55:00,
2013-05-01 19:00:00,59.5,56.9,30.26,ENE,68,1.0,3.0,91,0.00,,,0.00,VWS V14.01,2013-05-01 23:00:00,
2013-05-01 19:05:00,59.5,57.2,30.26,ENE,62,1.0,2.0,92,0.00,,,0.00,VWS V14.01,2013-05-01 23:05:00,
2013-05-01 19:10:00,59.5,56.9,30.26,NE,46,0.0,2.0,91,0.00,,,0.00,VWS V14.01,2013-05-01 23:10:00,
2013-05-01 19:15:00,59.6,57.0,30.26,NNE,27,2.0,3.0,91,0.00,,,0.00,VWS V14.01,2013-05-01 23:15:00,
2013-05-01 19:20:00,59.6,57.0,30.26,North,11,0.0,2.0,91,0.00,,,0.00,VWS V14.01,2013-05-01 23:20:00,
2013-05-01 19:25:00,59.6,57.0,30.26,NNE,25,0.0,2.0,91,0.00,,,0.00,VWS V14.01,2013-05-01 23:25:00,
2013-05-01 19:30:00,59.6,57.0,30.26,ENE,68,0.0,2.0,91,0.00,,,0.00,VWS V14.01,2013-05-01 23:30:00,
2013-05-01 19:35:00,59.7,57.1,30.26,NW,321,0.0,1.0,91,0.00,,,0.00,VWS V14.01,2013-05-01 23:35:00,
2013-05-01 19:40:00,59.6,57.0,30.26,North,8,1.0,6.0,91,0.00,,,0.00,VWS V14.01,2013-05-01 23:40:00,
2013-05-01 19:45:00,59.7,57.1,30.27,NNE,18,0.0,2.0,91,0.00,,,0.00,VWS V14.01,2013-05-01 23:45:00,
2013-05-01 19:50:00,59.7,57.1,30.26,NNE,22,0.0,4.0,91,0.00,,,0.00,VWS V14.01,2013-05-01 23:50:00,
2013-05-01 19:55:00,59.7,57.1,30.27,NE,37,0.0,2.0,91,0.00,,,0.00,VWS V14.01,2013-05-01 23:55:00,
2013-05-01 20:00:00,59.7,57.1,30.27,ENE,74,0.0,2.0,91,0.00,,OVC008,0.00,VWS V14.01,2013-05-02 00:00:00,
2013-05-01 20:05:00,59.7,56.8,30.27,NNE,16,0.0,4.0,90,0.00,,OVC008,0.00,VWS V14.01,2013-05-02 00:05:00,
2013-05-01 20:10:00,59.7,56.8,30.27,NNE,25,1.0,4.0,90,0.00,,OVC008,0.00,VWS V14.01,2013-05-02 00:10:00,
2013-05-01 20:15:00,59.7,56.8,30.28,ENE,65,1.0,2.0,90,0.00,,OVC008,0.00,VWS V14.01,2013-05-02 00:15:00,
2013-05-01 20:20:00,59.7,56.8,30.28,NNW,346,3.0,4.0,90,0.00,,OVC008,0.00,VWS V14.01,2013-05-02 00:20:00,
2013-05-01 20:25:00,59.7,56.8,30.28,North,11,1.0,3.0,90,0.00,,OVC008,0.00,VWS V14.01,2013-05-02 00:25:00,
2013-05-01 20:30:00,59.7,56.8,30.28,ENE,74,1.0,3.0,90,0.00,,OVC008,0.00,VWS V14.01,2013-05-02 00:30:00,
2013-05-01 20:35:00,59.7,56.8,30.28,ENE,73,0.0,4.0,90,0.00,,OVC008,0.00,VWS V14.01,2013-05-02 00:35:00,
2013-05-01 20:40:00,59.7,56.8,30.28,North,354,0.0,3.0,90,0.00,,OVC008,0.00,VWS V14.01,2013-05-02 00:40:00,
2013-05-01 20:45:00,59.7,56.8,30.28,NNE,14,0.0,2.0,90,0.00,,OVC008,0.00,VWS V14.01,2013-05-02 00:45:00,
2013-05-01 20:50:00,59.7,56.8,30.29,ESE,113,0.0,2.0,90,0.00,,OVC008,0.00,VWS V14.01,2013-05-02 00:50:00,
2013-05-01 20:55:00,59.6,56.7,30.29,ESE,105,0.0,1.0,90,0.00,,OVC008,0.00,VWS V14.01,2013-05-02 00:55:00,
2013-05-01 21:00:00,59.6,56.7,30.29,NNE,20,0.0,2.0,90,0.00,,OVC010,0.00,VWS V14.01,2013-05-02 01:00:00,
2013-05-01 21:05:00,59.6,56.7,30.29,NNE,23,1.0,2.0,90,0.00,,OVC010,0.00,VWS V14.01,2013-05-02 01:05:00,
2013-05-01 21:10:00,59.6,56.7,30.29,ENE,77,0.0,3.0,90,0.00,,OVC010,0.00,VWS V14.01,2013-05-02 01:10:00,
2013-05-01 21:15:00,59.5,56.6,30.29,NNE,18,4.0,4.0,90,0.00,,OVC010,0.00,VWS V14.01,2013-05-02 01:15:00,
2013-05-01 21:20:00,59.5,56.6,30.30,NNE,22,0.0,4.0,90,0.00,,OVC010,0.00,VWS V14.01,2013-05-02 01:20:00,
2013-05-01 21:25:00,59.5,56.6,30.30,NE,54,0.0,1.0,90,0.00,,OVC010,0.00,VWS V14.01,2013-05-02 01:25:00,
2013-05-01 21:30:00,59.5,56.6,30.30,West,266,1.0,3.0,90,0.00,,OVC010,0.00,VWS V14.01,2013-05-02 01:30:00,
2013-05-01 21:35:00,59.4,56.5,30.30,NE,45,0.0,4.0,90,0.00,,OVC010,0.00,VWS V14.01,2013-05-02 01:35:00,
2013-05-01 21:40:00,59.4,56.5,30.30,ENE,78,0.0,3.0,90,0.00,,OVC010,0.00,VWS V14.01,2013-05-02 01:40:00,
2013-05-01 21:45:00,59.4,56.5,30.31,NNE,14,1.0,3.0,90,0.00,,OVC010,0.00,VWS V14.01,2013-05-02 01:45:00,
2013-05-01 21:50:00,59.4,56.5,30.31,ESE,104,0.0,2.0,90,0.00,,OVC010,0.00,VWS V14.01,2013-05-02 01:50:00,
2013-05-01 21:55:00,59.4,56.5,30.31,NE,46,0.0,1.0,90,0.00,,OVC010,0.00,VWS V14.01,2013-05-02 01:55:00,
2013-05-01 22:00:00,59.3,56.4,30.31,WSW,253,0.0,1.0,90,0.00,,OVC010,0.00,VWS V14.01,2013-05-02 02:00:00,
2013-05-01 22:05:00,59.3,56.4,30.32,East,79,0.0,4.0,90,0.00,,OVC010,0.00,VWS V14.01,2013-05-02 02:05:00,
2013-05-01 22:10:00,59.3,56.4,30.32,NE,56,0.0,2.0,90,0.00,,OVC010,0.00,VWS V14.01,2013-05-02 02:10:00,
2013-05-01 22:15:00,59.3,56.4,30.32,NNW,335,0.0,2.0,90,0.00,,OVC010,0.00,VWS V14.01,2013-05-02 02:15:00,
2013-05-01 22:20:00,59.2,56.3,30.32,North,11,0.0,4.0,90,0.00,,OVC010,0.00,VWS V14.01,2013-05-02 02:20:00,
2013-05-01 22:25:00,59.2,56.3,30.32,NNE,15,0.0,2.0,90,0.00,,OVC010,0.00,VWS V14.01,2013-05-02 02:25:00,
2013-05-01 22:30:00,59.2,56.3,30.32,NE,35,0.0,3.0,90,0.00,,OVC010,0.00,VWS V14.01,2013-05-02 02:30:00,
2013-05-01 22:35:00,59.1,56.2,30.32,ENE,63,0.0,1.0,90,0.00,,OVC010,0.00,VWS V14.01,2013-05-02 02:35:00,
2013-05-01 22:40:00,59.1,56.5,30.32,NNE,13,4.0,4.0,91,0.00,,OVC010,0.00,VWS V14.01,2013-05-02 02:40:00,
2013-05-01 22:45:00,59.1,56.2,30.32,NE,50,1.0,5.0,90,0.00,,OVC010,0.00,VWS V14.01,2013-05-02 02:45:00,
2013-05-01 22:50:00,59.0,56.4,30.32,NNE,30,0.0,4.0,91,0.00,,OVC010,0.00,VWS V14.01,2013-05-02 02:50:00,
2013-05-01 22:55:00,59.0,56.4,30.32,ENE,70,0.0,1.0,91,0.00,,OVC010,0.00,VWS V14.01,2013-05-02 02:55:00,
2013-05-01 23:00:00,58.9,56.3,30.32,ENE,78,2.0,3.0,91,0.00,,OVC010,0.00,VWS V14.01,2013-05-02 03:00:00,
2013-05-01 23:05:00,58.9,56.3,30.32,NE,44,0.0,2.0,91,0.00,,OVC010,0.00,VWS V14.01,2013-05-02 03:05:00,
2013-05-01 23:10:00,58.8,56.2,30.32,ENE,66,0.0,2.0,91,0.00,,OVC010,0.00,VWS V14.01,2013-05-02 03:10:00,
2013-05-01 23:15:00,58.7,56.4,30.32,ENE,74,0.0,3.0,92,0.00,,OVC010,0.00,VWS V14.01,2013-05-02 03:15:00,
2013-05-01 23:20:00,58.7,56.4,30.32,ENE,71,1.0,1.0,92,0.00,,OVC010,0.00,VWS V14.01,2013-05-02 03:20:00,
2013-05-01 23:25:00,58.6,56.3,30.32,NNE,20,0.0,2.0,92,0.00,,OVC010,0.00,VWS V14.01,2013-05-02 03:25:00,
2013-05-01 23:30:00,58.6,56.3,30.32,NNE,14,0.0,3.0,92,0.00,,OVC010,0.00,VWS V14.01,2013-05-02 03:30:00,
2013-05-01 23:35:00,58.6,56.3,30.31,NNE,31,0.0,2.0,92,0.00,,OVC010,0.00,VWS V14.01,2013-05-02 03:35:00,
2013-05-01 23:40:00,58.6,56.3,30.31,North,11,0.0,4.0,92,0.00,,OVC010,0.00,VWS V14.01,2013-05-02 03:40:00,
2013-05-01 23:45:00,58.6,56.0,30.31,North,5,0.0,2.0,91,0.00,,OVC010,0.00,VWS V14.01,2013-05-02 03:45:00,
2013-05-01 23:50:00,58.6,56.0,30.31,North,8,1.0,2.0,91,0.00,,OVC010,0.00,VWS V14.01,2013-05-02 03:50:00,
2013-05-01 23:55:00,58.6,56.0,30.31,NE,37,1.0,4.0,91,0.00,,OVC010,0.00,VWS V14.01,2013-05-02 03:55:00,